sat.trackr.live / text

‹ back to catalog

STARLINK-30259

NORAD 57521 · 2023-115A

PAYLOAD ACTIVE UNKNOWN

§ Identity

Operator
Country
US
Launch date
2023-08-08
Launch site
AFWTR
Launch vehicle
Mass (kg)
RCS (m²)

Purposes: comms

External: N2YO · Heavens-Above · Gunter

§ Orbital elements

Epoch: 2026-05-24T11:47:02.025888Z

Period
94.27 min
Inclination
43.0009°
Eccentricity
0.0001399
Mean motion
15.27580047 rev/d
Perigee alt
482.1 km
Apogee alt
484.0 km
Semi-major
6,861.2 km
B*
1.5573e-4
RAAN
293.5502°
Arg perigee
265.9264°
Mean anomaly
94.1428°
Rev number
15,516

§ Raw data

STARLINK-302591 57521U 23115A   26144.49099567  .00004026  00000+0  15573-3 0  99932 57521  43.0009 293.5502 0001399 265.9264  94.1428 15.27580047155165

JSON: /api/v1/satellites/57521 · /tle

For live sub-satellite position, see the globe view (requires WebGL).

§ Visibility from observer

Set your observer location to see the next 7 days of passes ≥ 10°. The values pass through the URL so the page stays shareable.

No JS? Fill the form by hand. The geolocation button needs JavaScript.